#datetime,building,power
2022-07-07T00:00:00,rvs,15.64
2022-07-07T00:01:00,rvs,15.58
2022-07-07T00:02:00,rvs,16.12
2022-07-07T00:03:00,rvs,16.14
2022-07-07T00:04:00,rvs,16.64
2022-07-07T00:05:00,rvs,17.44
2022-07-07T00:06:00,rvs,18.13
2022-07-07T00:07:00,rvs,17.53
2022-07-07T00:08:00,rvs,17.05
2022-07-07T00:09:00,rvs,16.46
2022-07-07T00:10:00,rvs,16.69
2022-07-07T00:11:00,rvs,16.76
2022-07-07T00:12:00,rvs,17.39
2022-07-07T00:13:00,rvs,17.47
2022-07-07T00:14:00,rvs,17.12
2022-07-07T00:15:00,rvs,16.69
2022-07-07T00:16:00,rvs,16.68
2022-07-07T00:17:00,rvs,14.82
2022-07-07T00:18:00,rvs,14.84
2022-07-07T00:19:00,rvs,15.49
2022-07-07T00:20:00,rvs,14.68
2022-07-07T00:21:00,rvs,13.04
2022-07-07T00:22:00,rvs,12.96
2022-07-07T00:23:00,rvs,13.70
2022-07-07T00:24:00,rvs,17.62
2022-07-07T00:25:00,rvs,17.43
2022-07-07T00:26:00,rvs,17.22
2022-07-07T00:27:00,rvs,17.55
2022-07-07T00:28:00,rvs,18.54
2022-07-07T00:29:00,rvs,19.22
2022-07-07T00:30:00,rvs,20.02
2022-07-07T00:31:00,rvs,19.35
2022-07-07T00:32:00,rvs,19.07
2022-07-07T00:33:00,rvs,17.32
2022-07-07T00:34:00,rvs,17.32
2022-07-07T00:35:00,rvs,17.64
2022-07-07T00:36:00,rvs,17.45
2022-07-07T00:37:00,rvs,17.24
2022-07-07T00:38:00,rvs,13.06
2022-07-07T00:39:00,rvs,13.50
2022-07-07T00:40:00,rvs,13.37
2022-07-07T00:41:00,rvs,12.87
2022-07-07T00:42:00,rvs,15.15
2022-07-07T00:43:00,rvs,15.57
2022-07-07T00:44:00,rvs,15.38
2022-07-07T00:45:00,rvs,16.03
2022-07-07T00:46:00,rvs,16.76
2022-07-07T00:47:00,rvs,16.79
2022-07-07T00:48:00,rvs,16.98
2022-07-07T00:49:00,rvs,17.23
2022-07-07T00:50:00,rvs,17.00
2022-07-07T00:51:00,rvs,16.44
2022-07-07T00:52:00,rvs,16.56
2022-07-07T00:53:00,rvs,16.76
2022-07-07T00:54:00,rvs,16.83
2022-07-07T00:55:00,rvs,16.92
2022-07-07T00:56:00,rvs,16.80
2022-07-07T00:57:00,rvs,16.86
2022-07-07T00:58:00,rvs,12.91
2022-07-07T00:59:00,rvs,12.80
2022-07-07T01:00:00,rvs,13.03
2022-07-07T01:01:00,rvs,13.28
2022-07-07T01:02:00,rvs,13.31
2022-07-07T01:03:00,rvs,12.79
2022-07-07T01:04:00,rvs,12.81
2022-07-07T01:05:00,rvs,13.01
2022-07-07T01:06:00,rvs,12.77
2022-07-07T01:07:00,rvs,12.91
2022-07-07T01:08:00,rvs,12.76
2022-07-07T01:09:00,rvs,12.82
2022-07-07T01:10:00,rvs,12.82
2022-07-07T01:11:00,rvs,12.74
2022-07-07T01:12:00,rvs,12.78
2022-07-07T01:13:00,rvs,12.79
2022-07-07T01:14:00,rvs,12.82
2022-07-07T01:15:00,rvs,12.84
2022-07-07T01:16:00,rvs,12.82
2022-07-07T01:17:00,rvs,12.83
2022-07-07T01:18:00,rvs,14.71
2022-07-07T01:19:00,rvs,15.10
2022-07-07T01:20:00,rvs,15.34
2022-07-07T01:21:00,rvs,15.42
2022-07-07T01:22:00,rvs,15.80
2022-07-07T01:23:00,rvs,17.96
2022-07-07T01:24:00,rvs,14.49
2022-07-07T01:25:00,rvs,14.49
2022-07-07T01:26:00,rvs,14.67
2022-07-07T01:27:00,rvs,13.47
2022-07-07T01:28:00,rvs,14.78
2022-07-07T01:29:00,rvs,15.10
2022-07-07T01:30:00,rvs,15.33
2022-07-07T01:31:00,rvs,15.71
2022-07-07T01:32:00,rvs,16.59
2022-07-07T01:33:00,rvs,16.85
2022-07-07T01:34:00,rvs,16.99
2022-07-07T01:35:00,rvs,18.66
2022-07-07T01:36:00,rvs,18.66
2022-07-07T01:37:00,rvs,19.00
2022-07-07T01:38:00,rvs,18.99
2022-07-07T01:39:00,rvs,19.45
2022-07-07T01:40:00,rvs,19.86
2022-07-07T01:41:00,rvs,20.47
2022-07-07T01:42:00,rvs,22.81
2022-07-07T01:43:00,rvs,23.55
2022-07-07T01:44:00,rvs,23.87
2022-07-07T01:45:00,rvs,14.18
2022-07-07T01:46:00,rvs,12.33
2022-07-07T01:47:00,rvs,12.16
2022-07-07T01:48:00,rvs,12.14
2022-07-07T01:49:00,rvs,12.16
2022-07-07T01:50:00,rvs,12.06
2022-07-07T01:51:00,rvs,11.99
2022-07-07T01:52:00,rvs,12.02
2022-07-07T01:53:00,rvs,12.03
2022-07-07T01:54:00,rvs,12.39
2022-07-07T01:55:00,rvs,26.64
2022-07-07T01:56:00,rvs,26.49
2022-07-07T01:57:00,rvs,26.33
2022-07-07T01:58:00,rvs,27.93
2022-07-07T01:59:00,rvs,15.35
2022-07-07T02:00:00,rvs,14.99
2022-07-07T02:01:00,rvs,14.76
2022-07-07T02:02:00,rvs,17.22
2022-07-07T02:03:00,rvs,17.70
2022-07-07T02:04:00,rvs,19.25
2022-07-07T02:05:00,rvs,19.76
2022-07-07T02:06:00,rvs,16.31
2022-07-07T02:07:00,rvs,15.80
2022-07-07T02:08:00,rvs,14.59
2022-07-07T02:09:00,rvs,15.02
2022-07-07T02:10:00,rvs,15.20
2022-07-07T02:11:00,rvs,15.70
2022-07-07T02:12:00,rvs,15.42
2022-07-07T02:13:00,rvs,17.20
2022-07-07T02:14:00,rvs,17.34
2022-07-07T02:15:00,rvs,17.93
2022-07-07T02:16:00,rvs,18.21
2022-07-07T02:17:00,rvs,18.18
2022-07-07T02:18:00,rvs,18.66
2022-07-07T02:19:00,rvs,20.28
2022-07-07T02:20:00,rvs,21.97
2022-07-07T02:21:00,rvs,21.64
2022-07-07T02:22:00,rvs,23.12
2022-07-07T02:23:00,rvs,21.45
2022-07-07T02:24:00,rvs,23.94
2022-07-07T02:25:00,rvs,22.57
2022-07-07T02:26:00,rvs,22.09
2022-07-07T02:27:00,rvs,21.62
2022-07-07T02:28:00,rvs,21.11
2022-07-07T02:29:00,rvs,20.87
2022-07-07T02:30:00,rvs,20.94
2022-07-07T02:31:00,rvs,17.17
2022-07-07T02:32:00,rvs,16.93
2022-07-07T02:33:00,rvs,12.05
2022-07-07T02:34:00,rvs,12.05
2022-07-07T02:35:00,rvs,12.38
2022-07-07T02:36:00,rvs,12.78
2022-07-07T02:37:00,rvs,12.37
2022-07-07T02:38:00,rvs,12.55
2022-07-07T02:39:00,rvs,14.83
2022-07-07T02:40:00,rvs,15.06
2022-07-07T02:41:00,rvs,14.32
2022-07-07T02:42:00,rvs,14.95
2022-07-07T02:43:00,rvs,15.60
2022-07-07T02:44:00,rvs,15.28
2022-07-07T02:45:00,rvs,15.35
2022-07-07T02:46:00,rvs,15.36
2022-07-07T02:47:00,rvs,14.97
2022-07-07T02:48:00,rvs,14.83
2022-07-07T02:49:00,rvs,15.12
2022-07-07T02:50:00,rvs,14.87
2022-07-07T02:51:00,rvs,17.08
2022-07-07T02:52:00,rvs,15.41
2022-07-07T02:53:00,rvs,15.57
2022-07-07T02:54:00,rvs,13.29
2022-07-07T02:55:00,rvs,13.09
2022-07-07T02:56:00,rvs,11.61
2022-07-07T02:57:00,rvs,11.60
2022-07-07T02:58:00,rvs,11.57
2022-07-07T02:59:00,rvs,11.62
2022-07-07T03:00:00,rvs,11.59
2022-07-07T03:01:00,rvs,11.60
2022-07-07T03:02:00,rvs,11.56
2022-07-07T03:03:00,rvs,11.43
2022-07-07T03:04:00,rvs,11.45
2022-07-07T03:05:00,rvs,11.44
2022-07-07T03:06:00,rvs,11.43
2022-07-07T03:07:00,rvs,11.59
2022-07-07T03:08:00,rvs,11.36
2022-07-07T03:09:00,rvs,12.10
2022-07-07T03:10:00,rvs,12.23
2022-07-07T03:11:00,rvs,13.69
2022-07-07T03:12:00,rvs,11.91
2022-07-07T03:13:00,rvs,11.94
2022-07-07T03:14:00,rvs,11.40
2022-07-07T03:15:00,rvs,11.39
2022-07-07T03:16:00,rvs,11.46
2022-07-07T03:17:00,rvs,11.35
2022-07-07T03:18:00,rvs,11.44
2022-07-07T03:19:00,rvs,11.33
2022-07-07T03:20:00,rvs,13.22
2022-07-07T03:21:00,rvs,12.88
2022-07-07T03:22:00,rvs,13.19
2022-07-07T03:23:00,rvs,13.46
2022-07-07T03:24:00,rvs,11.73
2022-07-07T03:25:00,rvs,11.27
2022-07-07T03:26:00,rvs,11.21
2022-07-07T03:27:00,rvs,11.25
2022-07-07T03:28:00,rvs,11.25
2022-07-07T03:29:00,rvs,11.07
2022-07-07T03:30:00,rvs,11.10
2022-07-07T03:31:00,rvs,11.21
2022-07-07T03:32:00,rvs,11.18
2022-07-07T03:33:00,rvs,11.18
2022-07-07T03:34:00,rvs,11.78
2022-07-07T03:35:00,rvs,11.74
2022-07-07T03:36:00,rvs,11.76
2022-07-07T03:37:00,rvs,11.79
2022-07-07T03:38:00,rvs,13.90
2022-07-07T03:39:00,rvs,14.22
2022-07-07T03:40:00,rvs,14.42
2022-07-07T03:41:00,rvs,14.36
2022-07-07T03:42:00,rvs,15.05
2022-07-07T03:43:00,rvs,15.65
2022-07-07T03:44:00,rvs,15.77
2022-07-07T03:45:00,rvs,16.29
2022-07-07T03:46:00,rvs,16.36
2022-07-07T03:47:00,rvs,16.19
2022-07-07T03:48:00,rvs,16.00
2022-07-07T03:49:00,rvs,16.10
2022-07-07T03:50:00,rvs,17.88
2022-07-07T03:51:00,rvs,18.10
2022-07-07T03:52:00,rvs,14.21
2022-07-07T03:53:00,rvs,14.27
2022-07-07T03:54:00,rvs,14.42
2022-07-07T03:55:00,rvs,15.20
2022-07-07T03:56:00,rvs,15.50
2022-07-07T03:57:00,rvs,16.26
2022-07-07T03:58:00,rvs,16.59
2022-07-07T03:59:00,rvs,16.31
2022-07-07T04:00:00,rvs,16.17
2022-07-07T04:01:00,rvs,16.44
2022-07-07T04:02:00,rvs,16.09
2022-07-07T04:03:00,rvs,12.10
2022-07-07T04:04:00,rvs,12.09
2022-07-07T04:05:00,rvs,12.09
2022-07-07T04:06:00,rvs,12.04
2022-07-07T04:07:00,rvs,12.03
2022-07-07T04:08:00,rvs,11.95
2022-07-07T04:09:00,rvs,11.92
2022-07-07T04:10:00,rvs,12.03
2022-07-07T04:11:00,rvs,13.63
2022-07-07T04:12:00,rvs,14.27
2022-07-07T04:13:00,rvs,14.51
2022-07-07T04:14:00,rvs,14.87
2022-07-07T04:15:00,rvs,15.53
2022-07-07T04:16:00,rvs,15.75
2022-07-07T04:17:00,rvs,15.65
2022-07-07T04:18:00,rvs,11.98
2022-07-07T04:19:00,rvs,11.96
2022-07-07T04:20:00,rvs,11.97
2022-07-07T04:21:00,rvs,11.93
2022-07-07T04:22:00,rvs,11.92
2022-07-07T04:23:00,rvs,11.86
2022-07-07T04:24:00,rvs,11.91
2022-07-07T04:25:00,rvs,12.00
2022-07-07T04:26:00,rvs,12.03
2022-07-07T04:27:00,rvs,11.97
2022-07-07T04:28:00,rvs,12.19
2022-07-07T04:29:00,rvs,11.95
2022-07-07T04:30:00,rvs,11.98
2022-07-07T04:31:00,rvs,14.26
2022-07-07T04:32:00,rvs,14.41
2022-07-07T04:33:00,rvs,14.43
2022-07-07T04:34:00,rvs,14.32
2022-07-07T04:35:00,rvs,15.17
2022-07-07T04:36:00,rvs,15.52
2022-07-07T04:37:00,rvs,17.71
2022-07-07T04:38:00,rvs,18.19
2022-07-07T04:39:00,rvs,18.30
2022-07-07T04:40:00,rvs,17.26
2022-07-07T04:41:00,rvs,16.92
2022-07-07T04:42:00,rvs,12.97
2022-07-07T04:43:00,rvs,13.18
2022-07-07T04:44:00,rvs,13.25
2022-07-07T04:45:00,rvs,13.52
2022-07-07T04:46:00,rvs,13.69
2022-07-07T04:47:00,rvs,13.73
2022-07-07T04:48:00,rvs,12.02
2022-07-07T04:49:00,rvs,11.93
2022-07-07T04:50:00,rvs,25.48
2022-07-07T04:51:00,rvs,25.21
2022-07-07T04:52:00,rvs,25.07
2022-07-07T04:53:00,rvs,12.09
2022-07-07T04:54:00,rvs,12.05
2022-07-07T04:55:00,rvs,12.05
2022-07-07T04:56:00,rvs,12.05
2022-07-07T04:57:00,rvs,11.98
2022-07-07T04:58:00,rvs,12.00
2022-07-07T04:59:00,rvs,12.07
2022-07-07T05:00:00,rvs,12.01
2022-07-07T05:01:00,rvs,11.33
2022-07-07T05:02:00,rvs,11.80
2022-07-07T05:03:00,rvs,11.88
2022-07-07T05:04:00,rvs,11.83
2022-07-07T05:05:00,rvs,11.37
2022-07-07T05:06:00,rvs,11.33
2022-07-07T05:07:00,rvs,11.39
2022-07-07T05:08:00,rvs,11.30
2022-07-07T05:09:00,rvs,11.29
2022-07-07T05:10:00,rvs,11.45
2022-07-07T05:11:00,rvs,11.36
2022-07-07T05:12:00,rvs,11.45
2022-07-07T05:13:00,rvs,11.45
2022-07-07T05:14:00,rvs,11.32
2022-07-07T05:15:00,rvs,11.17
2022-07-07T05:16:00,rvs,11.16
2022-07-07T05:17:00,rvs,11.18
2022-07-07T05:18:00,rvs,11.67
2022-07-07T05:19:00,rvs,11.65
2022-07-07T05:20:00,rvs,11.61
2022-07-07T05:21:00,rvs,11.55
2022-07-07T05:22:00,rvs,11.57
2022-07-07T05:23:00,rvs,11.57
2022-07-07T05:24:00,rvs,11.57
2022-07-07T05:25:00,rvs,11.61
2022-07-07T05:26:00,rvs,11.59
2022-07-07T05:27:00,rvs,11.52
2022-07-07T05:28:00,rvs,11.56
2022-07-07T05:29:00,rvs,11.87
2022-07-07T05:30:00,rvs,11.92
2022-07-07T05:31:00,rvs,11.87
2022-07-07T05:32:00,rvs,11.74
2022-07-07T05:33:00,rvs,11.73
2022-07-07T05:34:00,rvs,11.67
2022-07-07T05:35:00,rvs,11.69
2022-07-07T05:36:00,rvs,11.74
2022-07-07T05:37:00,rvs,11.83
2022-07-07T05:38:00,rvs,11.83
2022-07-07T05:39:00,rvs,11.84
2022-07-07T05:40:00,rvs,13.13
2022-07-07T05:41:00,rvs,13.91
2022-07-07T05:42:00,rvs,15.93
2022-07-07T05:43:00,rvs,17.10
2022-07-07T05:44:00,rvs,17.65
2022-07-07T05:45:00,rvs,18.44
2022-07-07T05:46:00,rvs,19.42
2022-07-07T05:47:00,rvs,19.99
2022-07-07T05:48:00,rvs,20.16
2022-07-07T05:49:00,rvs,20.07
2022-07-07T05:50:00,rvs,21.77
2022-07-07T05:51:00,rvs,21.10
2022-07-07T05:52:00,rvs,21.23
2022-07-07T05:53:00,rvs,21.39
2022-07-07T05:54:00,rvs,21.31
2022-07-07T05:55:00,rvs,20.30
2022-07-07T05:56:00,rvs,19.67
2022-07-07T05:57:00,rvs,16.18
2022-07-07T05:58:00,rvs,17.07
2022-07-07T05:59:00,rvs,13.52
2022-07-07T06:00:00,rvs,13.77
2022-07-07T06:01:00,rvs,13.19
2022-07-07T06:02:00,rvs,12.93
2022-07-07T06:03:00,rvs,12.90
2022-07-07T06:04:00,rvs,13.11
2022-07-07T06:05:00,rvs,13.54
2022-07-07T06:06:00,rvs,13.61
2022-07-07T06:07:00,rvs,13.65
2022-07-07T06:08:00,rvs,14.02
2022-07-07T06:09:00,rvs,14.24
2022-07-07T06:10:00,rvs,14.17
2022-07-07T06:11:00,rvs,11.99
2022-07-07T06:12:00,rvs,11.95
2022-07-07T06:13:00,rvs,12.00
2022-07-07T06:14:00,rvs,12.00
2022-07-07T06:15:00,rvs,12.03
2022-07-07T06:16:00,rvs,11.97
2022-07-07T06:17:00,rvs,11.88
2022-07-07T06:18:00,rvs,11.92
2022-07-07T06:19:00,rvs,12.38
2022-07-07T06:20:00,rvs,12.30
2022-07-07T06:21:00,rvs,12.02
2022-07-07T06:22:00,rvs,11.84
2022-07-07T06:23:00,rvs,13.43
2022-07-07T06:24:00,rvs,13.93
2022-07-07T06:25:00,rvs,13.60
2022-07-07T06:26:00,rvs,13.24
2022-07-07T06:27:00,rvs,11.76
2022-07-07T06:28:00,rvs,11.80
2022-07-07T06:29:00,rvs,11.81
2022-07-07T06:30:00,rvs,11.82
2022-07-07T06:31:00,rvs,11.88
2022-07-07T06:32:00,rvs,11.85
2022-07-07T06:33:00,rvs,12.07
2022-07-07T06:34:00,rvs,12.08
2022-07-07T06:35:00,rvs,12.21
2022-07-07T06:36:00,rvs,11.86
2022-07-07T06:37:00,rvs,11.86
2022-07-07T06:38:00,rvs,12.47
2022-07-07T06:39:00,rvs,12.30
2022-07-07T06:40:00,rvs,12.07
2022-07-07T06:41:00,rvs,14.30
2022-07-07T06:42:00,rvs,14.91
2022-07-07T06:43:00,rvs,15.71
2022-07-07T06:44:00,rvs,16.36
2022-07-07T06:45:00,rvs,17.36
2022-07-07T06:46:00,rvs,18.58
2022-07-07T06:47:00,rvs,19.59
2022-07-07T06:48:00,rvs,20.32
2022-07-07T06:49:00,rvs,20.34
2022-07-07T06:50:00,rvs,20.23
2022-07-07T06:51:00,rvs,20.28
2022-07-07T06:52:00,rvs,20.51
2022-07-07T06:53:00,rvs,22.40
2022-07-07T06:54:00,rvs,22.13
2022-07-07T06:55:00,rvs,18.06
2022-07-07T06:56:00,rvs,18.11
2022-07-07T06:57:00,rvs,18.41
2022-07-07T06:58:00,rvs,18.53
2022-07-07T06:59:00,rvs,14.61
2022-07-07T07:00:00,rvs,15.74
2022-07-07T07:01:00,rvs,15.37
2022-07-07T07:02:00,rvs,15.37
2022-07-07T07:03:00,rvs,13.90
2022-07-07T07:04:00,rvs,13.91
2022-07-07T07:05:00,rvs,13.73
2022-07-07T07:06:00,rvs,13.78
2022-07-07T07:07:00,rvs,14.24
2022-07-07T07:08:00,rvs,14.18
2022-07-07T07:09:00,rvs,14.74
2022-07-07T07:10:00,rvs,14.85
2022-07-07T07:11:00,rvs,14.92
2022-07-07T07:12:00,rvs,14.78
2022-07-07T07:13:00,rvs,12.32
2022-07-07T07:14:00,rvs,12.30
2022-07-07T07:15:00,rvs,12.27
2022-07-07T07:16:00,rvs,12.58
2022-07-07T07:17:00,rvs,12.47
2022-07-07T07:18:00,rvs,12.48
2022-07-07T07:19:00,rvs,12.50
2022-07-07T07:20:00,rvs,12.55
2022-07-07T07:21:00,rvs,13.61
2022-07-07T07:22:00,rvs,13.49
2022-07-07T07:23:00,rvs,13.50
2022-07-07T07:24:00,rvs,12.57
2022-07-07T07:25:00,rvs,12.69
2022-07-07T07:26:00,rvs,12.47
2022-07-07T07:27:00,rvs,12.38
2022-07-07T07:28:00,rvs,12.37
2022-07-07T07:29:00,rvs,12.36
2022-07-07T07:30:00,rvs,12.26
2022-07-07T07:31:00,rvs,14.40
2022-07-07T07:32:00,rvs,16.51
2022-07-07T07:33:00,rvs,16.69
2022-07-07T07:34:00,rvs,16.52
2022-07-07T07:35:00,rvs,16.33
2022-07-07T07:36:00,rvs,14.86
2022-07-07T07:37:00,rvs,17.70
2022-07-07T07:38:00,rvs,19.02
2022-07-07T07:39:00,rvs,19.70
2022-07-07T07:40:00,rvs,20.11
2022-07-07T07:41:00,rvs,19.73
2022-07-07T07:42:00,rvs,20.43
2022-07-07T07:43:00,rvs,19.82
2022-07-07T07:44:00,rvs,20.21
2022-07-07T07:45:00,rvs,20.99
2022-07-07T07:46:00,rvs,22.18
2022-07-07T07:47:00,rvs,24.40
2022-07-07T07:48:00,rvs,24.82
2022-07-07T07:49:00,rvs,22.80
2022-07-07T07:50:00,rvs,22.95
2022-07-07T07:51:00,rvs,23.53
2022-07-07T07:52:00,rvs,25.66
2022-07-07T07:53:00,rvs,26.03
2022-07-07T07:54:00,rvs,25.36
2022-07-07T07:55:00,rvs,25.49
2022-07-07T07:56:00,rvs,27.93
2022-07-07T07:57:00,rvs,22.72
2022-07-07T07:58:00,rvs,20.84
2022-07-07T07:59:00,rvs,18.50
2022-07-07T08:00:00,rvs,32.72
2022-07-07T08:01:00,rvs,34.42
2022-07-07T08:02:00,rvs,34.27
2022-07-07T08:03:00,rvs,34.57
2022-07-07T08:04:00,rvs,22.59
2022-07-07T08:05:00,rvs,22.88
2022-07-07T08:06:00,rvs,22.95
2022-07-07T08:07:00,rvs,22.71
2022-07-07T08:08:00,rvs,15.06
2022-07-07T08:09:00,rvs,15.01
2022-07-07T08:10:00,rvs,12.89
2022-07-07T08:11:00,rvs,13.16
2022-07-07T08:12:00,rvs,13.87
2022-07-07T08:13:00,rvs,14.10
2022-07-07T08:14:00,rvs,12.80
2022-07-07T08:15:00,rvs,12.74
2022-07-07T08:16:00,rvs,12.72
2022-07-07T08:17:00,rvs,12.73
2022-07-07T08:18:00,rvs,12.67
2022-07-07T08:19:00,rvs,12.65
2022-07-07T08:20:00,rvs,14.07
2022-07-07T08:21:00,rvs,14.41
2022-07-07T08:22:00,rvs,13.94
2022-07-07T08:23:00,rvs,14.26
2022-07-07T08:24:00,rvs,15.87
2022-07-07T08:25:00,rvs,16.79
2022-07-07T08:26:00,rvs,17.54
2022-07-07T08:27:00,rvs,15.74
2022-07-07T08:28:00,rvs,15.24
2022-07-07T08:29:00,rvs,16.48
2022-07-07T08:30:00,rvs,17.39
2022-07-07T08:31:00,rvs,17.40
2022-07-07T08:32:00,rvs,17.59
2022-07-07T08:33:00,rvs,19.23
2022-07-07T08:34:00,rvs,18.87
2022-07-07T08:35:00,rvs,19.04
2022-07-07T08:36:00,rvs,18.28
2022-07-07T08:37:00,rvs,17.27
2022-07-07T08:38:00,rvs,17.96
2022-07-07T08:39:00,rvs,18.25
2022-07-07T08:40:00,rvs,18.44
2022-07-07T08:41:00,rvs,18.70
2022-07-07T08:42:00,rvs,19.11
2022-07-07T08:43:00,rvs,18.55
2022-07-07T08:44:00,rvs,17.11
2022-07-07T08:45:00,rvs,16.96
2022-07-07T08:46:00,rvs,16.34
2022-07-07T08:47:00,rvs,15.31
2022-07-07T08:48:00,rvs,15.43
2022-07-07T08:49:00,rvs,15.62
2022-07-07T08:50:00,rvs,15.92
2022-07-07T08:51:00,rvs,16.49
2022-07-07T08:52:00,rvs,16.26
2022-07-07T08:53:00,rvs,12.20
2022-07-07T08:54:00,rvs,12.32
2022-07-07T08:55:00,rvs,12.58
2022-07-07T08:56:00,rvs,12.50
2022-07-07T08:57:00,rvs,12.55
2022-07-07T08:58:00,rvs,12.59
2022-07-07T08:59:00,rvs,13.15
2022-07-07T09:00:00,rvs,13.20
2022-07-07T09:01:00,rvs,13.54
2022-07-07T09:02:00,rvs,17.43
2022-07-07T09:03:00,rvs,17.65
2022-07-07T09:04:00,rvs,17.39
2022-07-07T09:05:00,rvs,17.46
2022-07-07T09:06:00,rvs,35.68
2022-07-07T09:07:00,rvs,20.37
2022-07-07T09:08:00,rvs,21.32
2022-07-07T09:09:00,rvs,21.16
2022-07-07T09:10:00,rvs,22.17
2022-07-07T09:11:00,rvs,21.92
2022-07-07T09:12:00,rvs,18.20
2022-07-07T09:13:00,rvs,17.80
2022-07-07T09:14:00,rvs,17.86
2022-07-07T09:15:00,rvs,18.18
2022-07-07T09:16:00,rvs,18.31
2022-07-07T09:17:00,rvs,18.71
2022-07-07T09:18:00,rvs,20.09
2022-07-07T09:19:00,rvs,21.36
2022-07-07T09:20:00,rvs,19.29
2022-07-07T09:21:00,rvs,19.00
2022-07-07T09:22:00,rvs,19.40
2022-07-07T09:23:00,rvs,19.76
2022-07-07T09:24:00,rvs,19.51
2022-07-07T09:25:00,rvs,19.34
2022-07-07T09:26:00,rvs,19.05
2022-07-07T09:27:00,rvs,19.00
2022-07-07T09:28:00,rvs,15.90
2022-07-07T09:29:00,rvs,15.59
2022-07-07T09:30:00,rvs,15.50
2022-07-07T09:31:00,rvs,15.61
2022-07-07T09:32:00,rvs,12.68
2022-07-07T09:33:00,rvs,12.76
2022-07-07T09:34:00,rvs,12.83
2022-07-07T09:35:00,rvs,12.79
2022-07-07T09:36:00,rvs,14.67
2022-07-07T09:37:00,rvs,15.64
2022-07-07T09:38:00,rvs,15.58
2022-07-07T09:39:00,rvs,15.51
2022-07-07T09:40:00,rvs,15.57
2022-07-07T09:41:00,rvs,12.66
2022-07-07T09:42:00,rvs,12.61
2022-07-07T09:43:00,rvs,12.60
2022-07-07T09:44:00,rvs,12.48
2022-07-07T09:45:00,rvs,12.49
2022-07-07T09:46:00,rvs,12.62
2022-07-07T09:47:00,rvs,12.30
2022-07-07T09:48:00,rvs,12.20
2022-07-07T09:49:00,rvs,14.88
2022-07-07T09:50:00,rvs,16.68
2022-07-07T09:51:00,rvs,19.39
2022-07-07T09:52:00,rvs,19.76
2022-07-07T09:53:00,rvs,22.37
2022-07-07T09:54:00,rvs,21.40
2022-07-07T09:55:00,rvs,24.19
2022-07-07T09:56:00,rvs,24.35
2022-07-07T09:57:00,rvs,23.72
2022-07-07T09:58:00,rvs,22.99
2022-07-07T09:59:00,rvs,23.22
2022-07-07T10:00:00,rvs,22.66
2022-07-07T10:01:00,rvs,22.32
2022-07-07T10:02:00,rvs,22.04
2022-07-07T10:03:00,rvs,18.17
2022-07-07T10:04:00,rvs,15.15
2022-07-07T10:05:00,rvs,15.38
2022-07-07T10:06:00,rvs,15.21
2022-07-07T10:07:00,rvs,14.47
2022-07-07T10:08:00,rvs,14.18
2022-07-07T10:09:00,rvs,14.76
2022-07-07T10:10:00,rvs,14.51
2022-07-07T10:11:00,rvs,11.99
2022-07-07T10:12:00,rvs,12.02
2022-07-07T10:13:00,rvs,11.94
2022-07-07T10:14:00,rvs,11.91
2022-07-07T10:15:00,rvs,11.93
2022-07-07T10:16:00,rvs,11.97
2022-07-07T10:17:00,rvs,11.85
2022-07-07T10:18:00,rvs,11.88
2022-07-07T10:19:00,rvs,14.04
2022-07-07T10:20:00,rvs,14.75
2022-07-07T10:21:00,rvs,15.02
2022-07-07T10:22:00,rvs,15.10
2022-07-07T10:23:00,rvs,16.10
2022-07-07T10:24:00,rvs,16.08
2022-07-07T10:25:00,rvs,18.75
2022-07-07T10:26:00,rvs,18.50
2022-07-07T10:27:00,rvs,18.42
2022-07-07T10:28:00,rvs,19.71
2022-07-07T10:29:00,rvs,19.83
2022-07-07T10:30:00,rvs,32.59
2022-07-07T10:31:00,rvs,32.16
2022-07-07T10:32:00,rvs,28.12
2022-07-07T10:33:00,rvs,15.64
2022-07-07T10:34:00,rvs,32.84
2022-07-07T10:35:00,rvs,18.31
2022-07-07T10:36:00,rvs,18.70
2022-07-07T10:37:00,rvs,19.24
2022-07-07T10:38:00,rvs,23.09
2022-07-07T10:39:00,rvs,19.17
2022-07-07T10:40:00,rvs,20.10
2022-07-07T10:41:00,rvs,20.98
2022-07-07T10:42:00,rvs,16.51
2022-07-07T10:43:00,rvs,16.29
2022-07-07T10:44:00,rvs,16.21
2022-07-07T10:45:00,rvs,16.29
2022-07-07T10:46:00,rvs,14.91
2022-07-07T10:47:00,rvs,15.17
2022-07-07T10:48:00,rvs,16.99
2022-07-07T10:49:00,rvs,17.56
2022-07-07T10:50:00,rvs,18.03
2022-07-07T10:51:00,rvs,18.37
2022-07-07T10:52:00,rvs,18.39
2022-07-07T10:53:00,rvs,17.92
2022-07-07T10:54:00,rvs,18.38
2022-07-07T10:55:00,rvs,18.35
2022-07-07T10:56:00,rvs,18.19
2022-07-07T10:57:00,rvs,18.16
2022-07-07T10:58:00,rvs,18.30
2022-07-07T10:59:00,rvs,18.55
2022-07-07T11:00:00,rvs,20.16
2022-07-07T11:01:00,rvs,20.05
2022-07-07T11:02:00,rvs,22.22
2022-07-07T11:03:00,rvs,23.73
2022-07-07T11:04:00,rvs,18.07
2022-07-07T11:05:00,rvs,18.46
2022-07-07T11:06:00,rvs,20.30
2022-07-07T11:07:00,rvs,19.88
2022-07-07T11:08:00,rvs,20.23
2022-07-07T11:09:00,rvs,20.11
2022-07-07T11:10:00,rvs,16.20
2022-07-07T11:11:00,rvs,19.30
2022-07-07T11:12:00,rvs,23.33
2022-07-07T11:13:00,rvs,23.56
2022-07-07T11:14:00,rvs,23.80
2022-07-07T11:15:00,rvs,20.55
2022-07-07T11:16:00,rvs,20.29
2022-07-07T11:17:00,rvs,18.89
2022-07-07T11:18:00,rvs,18.63
2022-07-07T11:19:00,rvs,18.38
2022-07-07T11:20:00,rvs,18.58
2022-07-07T11:21:00,rvs,19.59
2022-07-07T11:22:00,rvs,19.53
2022-07-07T11:23:00,rvs,19.24
2022-07-07T11:24:00,rvs,18.91
2022-07-07T11:25:00,rvs,18.98
2022-07-07T11:26:00,rvs,19.00
2022-07-07T11:27:00,rvs,18.92
2022-07-07T11:28:00,rvs,15.91
2022-07-07T11:29:00,rvs,15.76
2022-07-07T11:30:00,rvs,12.25
2022-07-07T11:31:00,rvs,12.12
2022-07-07T11:32:00,rvs,14.68
2022-07-07T11:33:00,rvs,15.34
2022-07-07T11:34:00,rvs,15.34
2022-07-07T11:35:00,rvs,15.70
2022-07-07T11:36:00,rvs,15.90
2022-07-07T11:37:00,rvs,21.28
2022-07-07T11:38:00,rvs,21.57
2022-07-07T11:39:00,rvs,22.29
2022-07-07T11:40:00,rvs,24.29
2022-07-07T11:41:00,rvs,20.59
2022-07-07T11:42:00,rvs,21.10
2022-07-07T11:43:00,rvs,21.55
2022-07-07T11:44:00,rvs,21.36
2022-07-07T11:45:00,rvs,24.82
2022-07-07T11:46:00,rvs,24.26
2022-07-07T11:47:00,rvs,24.84
2022-07-07T11:48:00,rvs,25.20
2022-07-07T11:49:00,rvs,23.87
2022-07-07T11:50:00,rvs,19.65
2022-07-07T11:51:00,rvs,22.58
2022-07-07T11:52:00,rvs,19.24
2022-07-07T11:53:00,rvs,19.38
2022-07-07T11:54:00,rvs,19.05
2022-07-07T11:55:00,rvs,15.67
2022-07-07T11:56:00,rvs,15.47
2022-07-07T11:57:00,rvs,20.73
2022-07-07T11:58:00,rvs,22.24
2022-07-07T11:59:00,rvs,22.87
2022-07-07T12:00:00,rvs,23.33
2022-07-07T12:01:00,rvs,23.61
2022-07-07T12:02:00,rvs,22.80
2022-07-07T12:03:00,rvs,21.88
2022-07-07T12:04:00,rvs,22.11
2022-07-07T12:05:00,rvs,22.21
2022-07-07T12:06:00,rvs,22.03
2022-07-07T12:07:00,rvs,21.84
2022-07-07T12:08:00,rvs,18.35
2022-07-07T12:09:00,rvs,18.84
2022-07-07T12:10:00,rvs,18.75
2022-07-07T12:11:00,rvs,15.17
2022-07-07T12:12:00,rvs,15.67
2022-07-07T12:13:00,rvs,15.96
2022-07-07T12:14:00,rvs,15.32
2022-07-07T12:15:00,rvs,12.49
2022-07-07T12:16:00,rvs,12.45
2022-07-07T12:17:00,rvs,12.41
2022-07-07T12:18:00,rvs,15.35
2022-07-07T12:19:00,rvs,15.19
2022-07-07T12:20:00,rvs,15.02
2022-07-07T12:21:00,rvs,15.30
2022-07-07T12:22:00,rvs,16.55
2022-07-07T12:23:00,rvs,16.03
2022-07-07T12:24:00,rvs,19.02
2022-07-07T12:25:00,rvs,19.80
2022-07-07T12:26:00,rvs,21.61
2022-07-07T12:27:00,rvs,24.08
2022-07-07T12:28:00,rvs,23.39
2022-07-07T12:29:00,rvs,19.96
2022-07-07T12:30:00,rvs,20.64
2022-07-07T12:31:00,rvs,22.76
2022-07-07T12:32:00,rvs,19.33
2022-07-07T12:33:00,rvs,18.96
2022-07-07T12:34:00,rvs,19.16
2022-07-07T12:35:00,rvs,20.30
2022-07-07T12:36:00,rvs,20.36
2022-07-07T12:37:00,rvs,20.52
2022-07-07T12:38:00,rvs,19.87
2022-07-07T12:39:00,rvs,20.66
2022-07-07T12:40:00,rvs,22.09
2022-07-07T12:41:00,rvs,22.27
2022-07-07T12:42:00,rvs,18.53
2022-07-07T12:43:00,rvs,20.99
2022-07-07T12:44:00,rvs,18.30
2022-07-07T12:45:00,rvs,15.59
2022-07-07T12:46:00,rvs,15.87
2022-07-07T12:47:00,rvs,12.41
2022-07-07T12:48:00,rvs,12.41
2022-07-07T12:49:00,rvs,25.91
2022-07-07T12:50:00,rvs,24.82
2022-07-07T12:51:00,rvs,24.61
2022-07-07T12:52:00,rvs,24.63
2022-07-07T12:53:00,rvs,23.32
2022-07-07T12:54:00,rvs,12.08
2022-07-07T12:55:00,rvs,12.08
2022-07-07T12:56:00,rvs,14.88
2022-07-07T12:57:00,rvs,14.50
2022-07-07T12:58:00,rvs,14.73
2022-07-07T12:59:00,rvs,15.86
2022-07-07T13:00:00,rvs,15.71
2022-07-07T13:01:00,rvs,15.72
2022-07-07T13:02:00,rvs,15.66
2022-07-07T13:03:00,rvs,16.55
2022-07-07T13:04:00,rvs,18.20
2022-07-07T13:05:00,rvs,21.04
2022-07-07T13:06:00,rvs,23.79
2022-07-07T13:07:00,rvs,25.19
2022-07-07T13:08:00,rvs,26.00
2022-07-07T13:09:00,rvs,22.09
2022-07-07T13:10:00,rvs,22.28
2022-07-07T13:11:00,rvs,21.73
2022-07-07T13:12:00,rvs,21.67
2022-07-07T13:13:00,rvs,22.73
2022-07-07T13:14:00,rvs,19.83
2022-07-07T13:15:00,rvs,19.12
2022-07-07T13:16:00,rvs,19.60
2022-07-07T13:17:00,rvs,16.40
2022-07-07T13:18:00,rvs,12.31